{"data":{"norad_id":62279,"intl_designator":"2024-237N","name":"STARLINK-11499 [DTC]","alt_names":[],"object_type":"PAYLOAD","status":"ACTIVE","operator":null,"country":"US","launch_date":"2024-12-08","launch_site_code":"AFETR","launch_vehicle":null,"mission":null,"orbit_class":"UNKNOWN","rcs_meters":null,"size_class":null,"mass_kg":null,"dimensions":null,"purposes":["comms"],"wikipedia_slug":null,"has_3d_model":false,"image_url":null,"decayed_at":null,"tle_current":{"epoch":"2026-05-25T04:07:12.012384Z","epoch_age_seconds":56911,"freshness":"FRESH","line1":"1 62279U 24237N   26145.17166681  .00266177  00000+0  20006-2 0  9996","line2":"2 62279  43.0008 316.2482 0001919 308.7342  51.3354 15.70977599 85009","mean_motion":15.70977599,"eccentricity":0.0001919,"inclination_deg":43.0008,"raan_deg":316.2482,"arg_perigee_deg":308.7342,"mean_anomaly_deg":51.3354,"bstar":0.0020006,"rev_number":8500,"period_min":91.662669214165,"perigee_km":354.80950615359,"apogee_km":357.39410700756,"semimajor_km":6734.2388065806,"source":"CELESTRAK","updated_at":"2026-05-25T13:38:19.644402Z"}}}